SP9KB-13 Weather Reports


time (UTC)temp
C
wind
direction
speed
KPH
gust
KPH
rain 1hr
cm
rain 24hr
cm
rain mn
cm
humidity
%
barometer
mb
20260503183127 10 227 1.6 1.6 0.00 0.00 0.00 65 999.0
20260503182626 10 227 0.0 1.6 0.00 0.00 0.00 64 999.1
20260503182126 11 224 1.6 1.6 0.00 0.00 0.00 63 999.1
20260503181625 11 221 0.0 1.6 0.00 0.00 0.00 63 999.1
20260503181124 11 224 0.0 0.0 0.00 0.00 0.00 63 998.9
20260503180628 11 225 1.6 1.6 0.00 0.00 0.00 62 999.0
20260503180123 11 217 0.0 1.6 0.00 0.00 0.00 61 999.0
20260503175622 11 229 1.6 3.2 0.00 0.00 0.00 60 999.0
20260503175122 12 230 3.2 3.2 0.00 0.00 0.00 59 998.9
20260503174621 12 230 1.6 3.2 0.00 0.00 0.00 58 998.7
20260503174121 12 229 1.6 1.6 0.00 0.00 0.00 58 998.8
20260503173620 13 224 1.6 3.2 0.00 0.00 0.00 54 998.5
20260503173119 13 231 1.6 1.6 0.00 0.00 0.00 53 998.8
20260503172619 13 232 1.6 3.2 0.00 0.00 0.00 54 998.9
20260503172118 14 233 1.6 1.6 0.00 0.00 0.00 50 998.9
20260503171617 15 231 1.6 1.6 0.00 0.00 0.00 48 998.8
20260503171116 15 230 0.0 1.6 0.00 0.00 0.00 49 998.7
20260503170616 16 230 1.6 1.6 0.00 0.00 0.00 45 998.6
20260503170115 16 229 0.0 0.0 0.00 0.00 0.00 47 998.8
20260503160108 21 223 4.8 6.4 0.00 0.00 0.00 32 998.7
20260503150600 22 185 3.2 3.2 0.00 0.00 0.00 33 999.2
20260503131047 22 211 6.4 9.7 0.00 0.00 0.00 32 1000.3
20260503130547 21 177 1.6 1.6 0.00 0.00 0.00 33 1000.4
20260503110531 20 184 0.0 1.6 0.00 0.00 0.00 37 1001.7
20260503081507 16 202 4.8 6.4 0.00 0.00 0.00 41 1003.0
20260503081006 17 240 9.7 11.3 0.00 0.00 0.00 41 1003.0
20260503080506 16 266 3.2 6.4 0.00 0.00 0.00 45 1003.0
20260503072501 16 160 1.6 1.6 0.00 0.00 0.00 44 1003.0
20260503072000 16 225 1.6 4.8 0.00 0.00 0.00 45 1002.9
20260503071500 16 229 1.6 3.2 0.00 0.00 0.00 44 1003.0
20260503070959 15 193 1.6 1.6 0.00 0.00 0.00 46 1003.2
20260503070459 15 194 0.0 1.6 0.00 0.00 0.00 48 1003.1
20260503054950 13 211 1.6 3.2 0.00 0.00 0.00 53 1003.0
20260503054450 12 201 1.6 1.6 0.00 0.00 0.00 55 1003.1
20260503053449 11 193 1.6 1.6 0.00 0.00 0.00 60 1002.9
20260503052948 8 234 0.0 0.0 0.00 0.00 0.00 76 1003.0
20260503052448 7 234 1.6 1.6 0.00 0.00 0.00 78 1003.0
20260503051947 6 234 0.0 1.6 0.00 0.00 0.00 81 1003.0
20260503051447 7 234 0.0 0.0 0.00 0.00 0.00 80 1003.0
20260503050946 7 234 0.0 0.0 0.00 0.00 0.00 78 1003.1
20260503050445 6 234 0.0 0.0 0.00 0.00 0.00 80 1003.1
20260503045945 5 234 3.2 3.2 0.00 0.00 0.00 82 1003.1
20260503045444 4 234 0.0 1.6 0.00 0.00 0.00 86 1003.1
20260503044944 4 234 0.0 1.6 0.00 0.00 0.00 87 1003.1
20260503044443 4 234 0.0 0.0 0.00 0.00 0.00 87 1003.0
20260503043943 4 234 0.0 0.0 0.00 0.00 0.00 85 1003.0
20260503043442 4 235 0.0 0.0 0.00 0.00 0.00 89 1003.0
20260503042942 2 235 0.0 0.0 0.00 0.00 0.00 94 1002.9
20260503041941 1 235 0.0 0.0 0.00 0.00 0.00 98 1003.1
20260503041440 1 235 0.0 0.0 0.00 0.00 0.00 99 1002.8
20260503040940 0 235 0.0 0.0 0.00 0.00 0.00 99 1003.0
20260503040439 0 235 0.0 0.0 0.00 0.00 0.00 99 1002.9
20260503035939 0 235 0.0 0.0 0.00 0.00 0.00 99 1002.9
20260503035438 0 235 0.0 0.0 0.00 0.00 0.00 99 1003.0
20260503034938 0 235 0.0 0.0 0.00 0.00 0.00 99 1002.9
20260503034437 0 235 0.0 0.0 0.00 0.00 0.00 99 1002.8
20260503033936 0 235 0.0 0.0 0.00 0.00 0.00 99 1003.0
20260503033436 0 235 0.0 0.0 0.00 0.00 0.00 99 1002.9
20260503032935 0 235 0.0 0.0 0.00 0.00 0.00 99 1002.9
20260503032435 0 235 0.0 0.0 0.00 0.00 0.00 99 1002.8
20260503031934 0 235 0.0 0.0 0.00 0.00 0.00 99 1002.9
20260503031434 -1 235 0.0 0.0 0.00 0.00 0.00 99 1002.8
20260503030933 -1 235 0.0 0.0 0.00 0.00 0.00 99 1002.9
20260503030433 0 235 0.0 0.0 0.00 0.00 0.00 99 1002.8
20260503025932 0 235 0.0 0.0 0.00 0.00 0.00 99 1002.8
20260503025432 0 235 0.0 0.0 0.00 0.00 0.00 99 1002.9
20260503024931 0 235 0.0 0.0 0.00 0.00 0.00 99 1003.0
20260503024431 0 235 0.0 0.0 0.00 0.00 0.00 99 1002.8
20260503023930 0 235 0.0 0.0 0.00 0.00 0.00 99 1003.0
20260503023430 -1 235 0.0 0.0 0.00 0.00 0.00 98 1002.8
20260503022929 -1 235 0.0 0.0 0.00 0.00 0.00 98 1002.9
20260503022429 0 235 0.0 0.0 0.00 0.00 0.00 98 1002.9
20260503021928 0 235 0.0 0.0 0.00 0.00 0.00 98 1002.7
20260503021428 0 235 0.0 0.0 0.00 0.00 0.00 98 1002.8
20260503020927 0 235 0.0 0.0 0.00 0.00 0.00 98 1002.8
20260503020426 0 235 0.0 0.0 0.00 0.00 0.00 98 1002.8
20260503015926 0 235 0.0 0.0 0.00 0.00 0.00 98 1002.9
20260503015425 0 235 0.0 0.0 0.00 0.00 0.00 98 1003.0
20260503014925 0 235 0.0 0.0 0.00 0.00 0.00 98 1003.0
20260503014424 0 235 0.0 0.0 0.00 0.00 0.00 98 1002.9
20260503013924 0 235 0.0 0.0 0.00 0.00 0.00 98 1002.9
20260503013423 0 235 0.0 0.0 0.00 0.00 0.00 98 1002.8
20260503012923 0 235 0.0 0.0 0.00 0.00 0.00 98 1002.9
20260503012422 0 235 0.0 0.0 0.00 0.00 0.00 98 1002.8
20260503011922 0 235 0.0 0.0 0.00 0.00 0.00 98 1003.0
20260503011421 0 235 0.0 0.0 0.00 0.00 0.00 98 1003.1
20260503010921 0 235 0.0 0.0 0.00 0.00 0.00 98 1002.9
20260503010420 0 235 0.0 0.0 0.00 0.00 0.00 98 1003.1
20260503005920 0 235 0.0 0.0 0.00 0.00 0.00 98 1003.0
20260503005419 0 235 0.0 0.0 0.00 0.00 0.00 97 1003.1
20260503004919 0 235 0.0 0.0 0.00 0.00 0.00 97 1003.0
20260503004418 0 235 0.0 0.0 0.00 0.00 0.00 97 1003.1
20260503003918 0 235 0.0 0.0 0.00 0.00 0.00 97 1003.1
20260503003417 0 235 0.0 0.0 0.00 0.00 0.00 97 1003.1
20260503002917 0 235 0.0 1.6 0.00 0.00 0.00 97 1003.1
20260503002416 0 235 0.0 0.0 0.00 0.00 0.00 97 1003.1
20260503001916 0 235 0.0 0.0 0.00 0.00 0.00 97 1003.4
20260503001415 0 235 0.0 0.0 0.00 0.00 0.00 97 1003.2
20260503000915 0 235 0.0 0.0 0.00 0.00 0.00 97 1003.1
20260503000415 0 235 1.6 1.6 0.00 0.00 0.00 97 1003.2
20260502235914 0 235 0.0 0.0 0.00 0.00 0.00 97 1003.2
20260502235413 0 235 0.0 0.0 0.00 0.00 0.00 97 1003.2
20260502234913 0 235 0.0 0.0 0.00 0.00 0.00 96 1003.3
20260502234412 0 235 0.0 0.0 0.00 0.00 0.00 96 1003.3
20260502233911 0 235 0.0 0.0 0.00 0.00 0.00 96 1003.2
20260502233412 0 235 0.0 0.0 0.00 0.00 0.00 96 1003.2
20260502232910 1 235 0.0 0.0 0.00 0.00 0.00 96 1003.3
20260502232410 1 234 0.0 0.0 0.00 0.00 0.00 96 1003.4
20260502231909 1 235 1.6 3.2 0.00 0.00 0.00 96 1002.9
20260502231409 0 234 0.0 0.0 0.00 0.00 0.00 96 1003.5
20260502230908 1 234 0.0 0.0 0.00 0.00 0.00 96 1003.2
20260502230408 1 234 0.0 0.0 0.00 0.00 0.00 96 1003.3
20260502225907 1 234 0.0 0.0 0.00 0.00 0.00 96 1003.5
20260502225407 1 234 0.0 0.0 0.00 0.00 0.00 95 1003.6
20260502224906 1 234 0.0 0.0 0.00 0.00 0.00 96 1003.6
20260502224406 1 234 0.0 0.0 0.00 0.00 0.00 95 1003.4
20260502223905 1 234 0.0 0.0 0.00 0.00 0.00 95 1003.5
20260502223405 1 234 1.6 1.6 0.00 0.00 0.00 95 1003.6
20260502222904 1 234 0.0 0.0 0.00 0.00 0.00 95 1003.6
20260502222404 1 234 0.0 0.0 0.00 0.00 0.00 94 1003.6
20260502221903 1 234 0.0 0.0 0.00 0.00 0.00 94 1003.6
20260502221402 1 234 1.6 1.6 0.00 0.00 0.00 94 1003.6
20260502220902 2 234 1.6 1.6 0.00 0.00 0.00 93 1003.7
20260502220401 2 234 0.0 0.0 0.00 0.00 0.00 93 1003.8
20260502215901 2 234 0.0 0.0 0.00 0.00 0.00 93 1003.9
20260502215400 2 234 0.0 0.0 0.00 0.00 0.00 93 1003.7
20260502214900 2 234 0.0 0.0 0.00 0.00 0.00 93 1003.9
20260502214359 2 234 0.0 0.0 0.00 0.00 0.00 93 1003.9
20260502213859 2 234 0.0 0.0 0.00 0.00 0.00 93 1003.8
20260502213358 2 234 0.0 0.0 0.00 0.00 0.00 92 1003.8
20260502212858 2 234 0.0 0.0 0.00 0.00 0.00 92 1003.9
20260502212357 2 234 0.0 0.0 0.00 0.00 0.00 92 1003.7
20260502211857 2 234 0.0 0.0 0.00 0.00 0.00 90 1003.7
20260502211356 3 234 0.0 0.0 0.00 0.00 0.00 91 1003.7
20260502210855 3 234 0.0 0.0 0.00 0.00 0.00 90 1003.7
20260502210355 3 234 0.0 0.0 0.00 0.00 0.00 90 1003.7
20260502205854 3 234 0.0 0.0 0.00 0.00 0.00 90 1003.9
20260502205354 3 234 1.6 1.6 0.00 0.00 0.00 90 1003.9
20260502204853 3 234 0.0 0.0 0.00 0.00 0.00 91 1003.6
20260502204353 2 234 0.0 0.0 0.00 0.00 0.00 91 1003.8
20260502203852 3 234 0.0 0.0 0.00 0.00 0.00 90 1003.9
20260502203351 3 234 0.0 0.0 0.00 0.00 0.00 89 1003.8
20260502202851 3 234 0.0 0.0 0.00 0.00 0.00 89 1003.8
20260502202350 3 234 1.6 1.6 0.00 0.00 0.00 89 1003.7
20260502201850 4 234 0.0 0.0 0.00 0.00 0.00 86 1003.8
20260502201349 4 234 1.6 1.6 0.00 0.00 0.00 88 1003.7
20260502200849 3 234 0.0 1.6 0.00 0.00 0.00 88 1003.7
20260502200348 4 234 0.0 0.0 0.00 0.00 0.00 88 1003.7
20260502195848 4 234 0.0 0.0 0.00 0.00 0.00 86 1003.6
20260502195347 4 234 0.0 0.0 0.00 0.00 0.00 85 1003.5
20260502194846 5 234 0.0 0.0 0.00 0.00 0.00 85 1003.4
20260502194346 5 234 0.0 0.0 0.00 0.00 0.00 84 1003.7
20260502193845 5 234 0.0 0.0 0.00 0.00 0.00 84 1003.6
20260502193345 5 234 0.0 0.0 0.00 0.00 0.00 82 1003.4
20260502192844 6 234 1.6 1.6 0.00 0.00 0.00 81 1003.5
20260502192343 6 234 1.6 1.6 0.00 0.00 0.00 81 1003.4
20260502191843 5 234 1.6 1.6 0.00 0.00 0.00 82 1003.6
20260502191342 6 234 0.0 0.0 0.00 0.00 0.00 82 1003.5
20260502190842 6 234 0.0 0.0 0.00 0.00 0.00 81 1003.4
20260502190341 6 234 0.0 1.6 0.00 0.00 0.00 80 1003.5
20260502185841 6 234 0.0 0.0 0.00 0.00 0.00 80 1003.5
20260502185340 6 234 0.0 0.0 0.00 0.00 0.00 77 1003.4
20260502184839 7 234 0.0 1.6 0.00 0.00 0.00 77 1003.3
20260502184339 7 234 1.6 1.6 0.00 0.00 0.00 76 1003.4
20260502183838 7 234 1.6 1.6 0.00 0.00 0.00 75 1003.3
20260502183337 7 234 1.6 3.2 0.00 0.00 0.00 74 1003.3